Location: Vancouver
(49.2500°N, 123.1330°W)
Time: 20:11:43
(UTC-07:00)

ERS-2 - Visible Passes

Search period start: 29 September 2016 00:00
Search period end: 09 October 2016 00:00
Orbit: 503 x 510 km, 98.5° (Epoch: 29 September)

Date Brightness Start Highest point End Pass type
(mag) Time Alt. Az. Time Alt. Az. Time Alt. Az.
29 Sep 4.2 04:11:52 10° NNE 04:13:29 25° NNE 04:13:29 25° NNE visible
29 Sep 4.4 05:47:34 10° NW 05:48:17 11° NW 05:48:17 11° NW visible
30 Sep 4.7 03:54:26 10° NNE 03:55:42 20° NNE 03:55:42 20° NNE visible
30 Sep 4.2 05:29:05 10° NNW 05:30:31 15° NW 05:30:31 15° NW visible
01 Oct 5.2 03:37:08 10° NE 03:37:55 15° NE 03:37:55 15° NE visible
01 Oct 4.0 05:11:07 10° N 05:12:43 19° NNW 05:12:43 19° NNW visible
02 Oct 5.6 03:20:02 10° NE 03:20:06 10° NE 03:20:06 10° NE visible
02 Oct 4.0 04:53:19 10° N 04:54:55 22° NNW 04:54:55 22° NNW visible
03 Oct 4.2 04:35:39 10° N 04:37:06 22° N 04:37:06 22° N visible
04 Oct 4.5 04:18:04 10° NNE 04:19:18 20° NNE 04:19:18 20° NNE visible
05 Oct 4.9 04:00:36 10° NNE 04:01:28 16° NNE 04:01:28 16° NNE visible
05 Oct 4.4 05:35:24 10° NNW 05:36:17 13° NW 05:36:17 13° NW visible
06 Oct 5.3 03:43:13 10° NNE 03:43:39 13° NE 03:43:39 13° NE visible
06 Oct 4.3 05:17:19 10° NNW 05:18:28 16° NNW 05:18:28 16° NNW visible
07 Oct 4.3 04:59:27 10° N 05:00:37 18° NNW 05:00:37 18° NNW visible
08 Oct 4.5 04:41:43 10° N 04:42:46 18° N 04:42:46 18° N visible
